Time,TemperatureF,DewpointF,PressureIn,WindDirection,WindDirectionDegrees,WindSpeedMPH,WindSpeedGustMPH,Humidity,HourlyPrecipIn,Conditions,Clouds,dailyrainin,SoftwareType,DateUTC
2013-09-04 00:00:00,65.9,57.0,29.99,WSW,248,0.0,0.0,73,0.00,,,0.00,WUHU216HW,2013-09-04 07:00:00,
2013-09-04 00:05:00,65.9,57.0,29.99,WSW,248,0.0,0.0,73,0.00,,,0.00,WUHU216HW,2013-09-04 07:05:00,
2013-09-04 00:30:00,64.8,56.7,29.98,WSW,248,0.0,0.0,75,0.00,,,0.00,WUHU216HW,2013-09-04 07:30:00,
2013-09-04 00:35:00,64.8,56.7,29.98,WSW,248,0.0,0.0,75,0.00,,,0.00,WUHU216HW,2013-09-04 07:35:00,
2013-09-04 01:00:00,64.3,56.9,29.98,West,270,0.0,0.0,77,0.00,,,0.00,WUHU216HW,2013-09-04 08:00:00,
2013-09-04 01:05:00,64.3,56.9,29.98,West,270,0.0,0.0,77,0.00,,,0.00,WUHU216HW,2013-09-04 08:05:00,
2013-09-04 01:30:00,63.7,56.7,29.98,West,270,0.0,0.0,78,0.00,,,0.00,WUHU216HW,2013-09-04 08:30:00,
2013-09-04 01:35:00,63.7,56.7,29.98,West,270,0.0,0.0,78,0.00,,,0.00,WUHU216HW,2013-09-04 08:35:00,
2013-09-04 02:00:00,63.2,56.2,29.98,West,270,0.0,0.0,78,0.00,,,0.00,WUHU216HW,2013-09-04 09:00:00,
2013-09-04 02:05:00,63.2,56.2,29.98,West,270,0.0,0.0,78,0.00,,,0.00,WUHU216HW,2013-09-04 09:05:00,
2013-09-04 02:30:00,62.6,56.0,29.98,West,270,0.0,0.0,79,0.00,,,0.00,WUHU216HW,2013-09-04 09:30:00,
2013-09-04 02:35:00,62.6,56.0,29.98,West,270,0.0,0.0,79,0.00,,,0.00,WUHU216HW,2013-09-04 09:35:00,
2013-09-04 03:00:00,61.9,55.7,29.98,West,270,0.0,0.0,80,0.00,,,0.00,WUHU216HW,2013-09-04 10:00:00,
2013-09-04 03:05:00,61.9,55.7,29.98,West,270,0.0,0.0,80,0.00,,,0.00,WUHU216HW,2013-09-04 10:05:00,
2013-09-04 03:30:00,61.6,55.7,29.98,West,270,0.0,0.0,81,0.00,,,0.00,WUHU216HW,2013-09-04 10:30:00,
2013-09-04 03:35:00,61.6,55.7,29.98,West,270,0.0,0.0,81,0.00,,,0.00,WUHU216HW,2013-09-04 10:35:00,
2013-09-04 04:00:00,61.2,55.7,29.98,West,270,0.0,0.0,82,0.00,,,0.00,WUHU216HW,2013-09-04 11:00:00,
2013-09-04 04:05:00,61.2,55.7,29.98,West,270,0.0,0.0,82,0.00,,,0.00,WUHU216HW,2013-09-04 11:05:00,
2013-09-04 04:30:00,61.2,56.1,29.98,West,270,0.0,0.0,83,0.00,,,0.00,WUHU216HW,2013-09-04 11:30:00,
2013-09-04 04:35:00,61.2,56.1,29.98,West,270,0.0,0.0,83,0.00,,,0.00,WUHU216HW,2013-09-04 11:35:00,
2013-09-04 05:00:00,61.2,56.1,29.99,West,270,0.0,0.0,83,0.00,,,0.00,WUHU216HW,2013-09-04 12:00:00,
2013-09-04 05:05:00,61.2,56.1,29.99,West,270,0.0,0.0,83,0.00,,,0.00,WUHU216HW,2013-09-04 12:05:00,
2013-09-04 05:30:00,61.0,55.9,29.99,West,270,0.0,0.0,83,0.00,,,0.00,WUHU216HW,2013-09-04 12:30:00,
2013-09-04 05:35:00,61.0,55.9,29.99,West,270,0.0,0.0,83,0.00,,,0.00,WUHU216HW,2013-09-04 12:35:00,
2013-09-04 06:00:00,61.0,55.9,29.99,West,270,0.0,0.0,83,0.00,,,0.00,WUHU216HW,2013-09-04 13:00:00,
2013-09-04 06:05:00,61.0,55.9,29.99,West,270,0.0,0.0,83,0.00,,,0.00,WUHU216HW,2013-09-04 13:05:00,
2013-09-04 06:30:00,61.0,56.2,30.00,West,270,0.0,0.0,84,0.00,,,0.00,WUHU216HW,2013-09-04 13:30:00,
2013-09-04 06:35:00,61.0,56.2,30.00,West,270,0.0,0.0,84,0.00,,,0.00,WUHU216HW,2013-09-04 13:35:00,
2013-09-04 07:00:00,61.6,56.3,30.00,West,270,0.0,0.0,83,0.00,,,0.00,WUHU216HW,2013-09-04 14:00:00,
2013-09-04 07:05:00,61.6,56.3,30.00,West,270,0.0,0.0,83,0.00,,,0.00,WUHU216HW,2013-09-04 14:05:00,
2013-09-04 07:30:00,62.8,57.5,30.00,ESE,113,0.2,0.2,83,0.00,,,0.00,WUHU216HW,2013-09-04 14:30:00,
2013-09-04 07:35:00,62.8,57.5,30.00,ESE,113,0.2,0.2,83,0.00,,,0.00,WUHU216HW,2013-09-04 14:35:00,
2013-09-04 08:00:00,64.4,58.5,30.01,SE,135,0.0,0.0,81,0.00,,,0.00,WUHU216HW,2013-09-04 15:00:00,
2013-09-04 08:05:00,64.4,58.5,30.01,SE,135,0.0,0.0,81,0.00,,,0.00,WUHU216HW,2013-09-04 15:05:00,
2013-09-04 08:30:00,65.0,58.7,30.01,ESE,113,0.0,0.0,80,0.00,,,0.00,WUHU216HW,2013-09-04 15:30:00,
2013-09-04 08:35:00,65.0,58.7,30.01,ESE,113,0.0,0.0,80,0.00,,,0.00,WUHU216HW,2013-09-04 15:35:00,
2013-09-04 09:00:00,65.9,58.9,30.02,SE,135,0.0,0.0,78,0.00,,,0.00,WUHU216HW,2013-09-04 16:00:00,
2013-09-04 09:05:00,65.9,58.9,30.02,SE,135,0.0,0.0,78,0.00,,,0.00,WUHU216HW,2013-09-04 16:05:00,
2013-09-04 09:30:00,65.9,58.9,30.03,ESE,113,0.0,0.0,78,0.00,,,0.00,WUHU216HW,2013-09-04 16:30:00,
2013-09-04 09:35:00,65.9,58.9,30.03,ESE,113,0.0,0.0,78,0.00,,,0.00,WUHU216HW,2013-09-04 16:35:00,
2013-09-04 10:00:00,66.4,59.0,30.03,NW,315,0.0,0.0,77,0.00,,,0.00,WUHU216HW,2013-09-04 17:00:00,
2013-09-04 10:05:00,66.4,59.0,30.03,NW,315,0.0,0.0,77,0.00,,,0.00,WUHU216HW,2013-09-04 17:05:00,
2013-09-04 10:30:00,67.7,59.5,30.03,ESE,113,0.7,0.7,75,0.00,,,0.00,WUHU216HW,2013-09-04 17:30:00,
2013-09-04 10:35:00,67.7,59.5,30.03,ESE,113,0.7,0.7,75,0.00,,,0.00,WUHU216HW,2013-09-04 17:35:00,
2013-09-04 11:00:00,67.9,59.3,30.04,ESE,113,0.0,0.0,74,0.00,,,0.00,WUHU216HW,2013-09-04 18:00:00,
2013-09-04 11:05:00,67.9,59.3,30.04,ESE,113,0.0,0.0,74,0.00,,,0.00,WUHU216HW,2013-09-04 18:05:00,
2013-09-04 11:30:00,68.6,59.6,30.05,ESE,113,0.2,0.2,73,0.00,,,0.00,WUHU216HW,2013-09-04 18:30:00,
2013-09-04 11:35:00,68.6,59.6,30.05,ESE,113,0.2,0.2,73,0.00,,,0.00,WUHU216HW,2013-09-04 18:35:00,
2013-09-04 12:00:00,70.9,60.2,30.04,SW,225,0.4,0.4,69,0.00,,,0.00,WUHU216HW,2013-09-04 19:00:00,
2013-09-04 12:05:00,70.9,60.2,30.04,SW,225,0.4,0.4,69,0.00,,,0.00,WUHU216HW,2013-09-04 19:05:00,
2013-09-04 12:30:00,71.1,58.7,30.03,North,0,1.3,1.3,65,0.00,,,0.00,WUHU216HW,2013-09-04 19:30:00,
2013-09-04 12:35:00,71.1,58.7,30.03,North,0,1.3,1.3,65,0.00,,,0.00,WUHU216HW,2013-09-04 19:35:00,
2013-09-04 13:00:00,71.6,59.7,30.03,NW,315,0.7,0.7,66,0.00,,,0.00,WUHU216HW,2013-09-04 20:00:00,
2013-09-04 13:05:00,71.6,59.7,30.03,NW,315,0.7,0.7,66,0.00,,,0.00,WUHU216HW,2013-09-04 20:05:00,
2013-09-04 13:30:00,72.0,60.0,30.03,NW,315,0.2,0.2,66,0.00,,,0.00,WUHU216HW,2013-09-04 20:30:00,
2013-09-04 13:35:00,72.0,60.0,30.03,NW,315,0.2,0.2,66,0.00,,,0.00,WUHU216HW,2013-09-04 20:35:00,
2013-09-04 14:00:00,72.4,60.8,30.03,SSW,203,0.0,0.0,67,0.00,,,0.00,WUHU216HW,2013-09-04 21:00:00,
2013-09-04 14:05:00,72.4,60.8,30.03,SSW,203,0.0,0.0,67,0.00,,,0.00,WUHU216HW,2013-09-04 21:05:00,
2013-09-04 14:30:00,72.7,60.7,30.03,NNW,338,0.0,0.0,66,0.00,,,0.00,WUHU216HW,2013-09-04 21:30:00,
2013-09-04 14:35:00,72.7,60.7,30.03,NNW,338,0.0,0.0,66,0.00,,,0.00,WUHU216HW,2013-09-04 21:35:00,
2013-09-04 15:00:00,72.7,60.2,30.03,SSE,158,0.2,0.2,65,0.00,,,0.00,WUHU216HW,2013-09-04 22:00:00,
2013-09-04 15:05:00,72.7,60.2,30.03,SSE,158,0.2,0.2,65,0.00,,,0.00,WUHU216HW,2013-09-04 22:05:00,
2013-09-04 15:30:00,73.3,60.8,30.03,West,270,0.2,0.2,65,0.00,,,0.00,WUHU216HW,2013-09-04 22:30:00,
2013-09-04 15:35:00,73.3,60.8,30.03,West,270,0.2,0.2,65,0.00,,,0.00,WUHU216HW,2013-09-04 22:35:00,
2013-09-04 16:00:00,73.4,61.4,30.02,NNW,338,0.0,0.0,66,0.00,,,0.00,WUHU216HW,2013-09-04 23:00:00,
2013-09-04 16:05:00,73.4,61.4,30.02,NNW,338,0.0,0.0,66,0.00,,,0.00,WUHU216HW,2013-09-04 23:05:00,
2013-09-04 16:30:00,73.6,61.1,30.01,ENE,68,0.0,0.0,65,0.00,,,0.00,WUHU216HW,2013-09-04 23:30:00,
2013-09-04 16:35:00,73.6,61.1,30.01,ENE,68,0.0,0.0,65,0.00,,,0.00,WUHU216HW,2013-09-04 23:35:00,
2013-09-04 17:00:00,73.6,61.1,30.01,SE,135,0.2,0.2,65,0.00,,,0.00,WUHU216HW,2013-09-05 00:00:00,
2013-09-04 17:05:00,73.6,61.1,30.01,SE,135,0.2,0.2,65,0.00,,,0.00,WUHU216HW,2013-09-05 00:05:00,
2013-09-04 17:30:00,73.1,61.0,30.01,SE,135,0.0,0.0,66,0.00,,,0.00,WUHU216HW,2013-09-05 00:30:00,
2013-09-04 17:35:00,73.1,61.0,30.01,SE,135,0.0,0.0,66,0.00,,,0.00,WUHU216HW,2013-09-05 00:35:00,
2013-09-04 18:00:00,72.9,60.8,30.00,NNW,338,0.2,0.2,66,0.00,,,0.00,WUHU216HW,2013-09-05 01:00:00,
2013-09-04 18:05:00,72.9,60.8,30.00,NNW,338,0.2,0.2,66,0.00,,,0.00,WUHU216HW,2013-09-05 01:05:00,
2013-09-04 18:30:00,72.2,60.6,30.00,WSW,248,0.0,0.0,67,0.00,,,0.00,WUHU216HW,2013-09-05 01:30:00,
2013-09-04 18:35:00,72.2,60.6,30.00,WSW,248,0.0,0.0,67,0.00,,,0.00,WUHU216HW,2013-09-05 01:35:00,
2013-09-04 18:59:00,71.5,60.0,30.00,NW,315,0.0,0.0,67,0.00,,,0.00,WUHU216HW,2013-09-05 01:59:00,
2013-09-04 19:00:00,71.5,60.0,30.00,NW,315,0.0,0.0,67,0.00,,,0.00,WUHU216HW,2013-09-05 02:00:00,
2013-09-04 19:05:00,71.5,60.0,30.00,NW,315,0.0,0.0,67,0.00,,,0.00,WUHU216HW,2013-09-05 02:05:00,
2013-09-04 19:30:00,70.9,59.9,30.00,NNE,23,0.2,0.2,68,0.00,,,0.00,WUHU216HW,2013-09-05 02:30:00,
2013-09-04 19:35:00,70.9,59.9,30.00,NNE,23,0.2,0.2,68,0.00,,,0.00,WUHU216HW,2013-09-05 02:35:00,
2013-09-04 19:59:00,70.6,60.3,30.01,WNW,293,0.0,0.0,70,0.00,,,0.00,WUHU216HW,2013-09-05 02:59:00,
2013-09-04 20:00:00,70.6,60.3,30.01,WNW,293,0.0,0.0,70,0.00,,,0.00,WUHU216HW,2013-09-05 03:00:00,
2013-09-04 20:05:00,70.6,60.3,30.01,WNW,293,0.0,0.0,70,0.00,,,0.00,WUHU216HW,2013-09-05 03:05:00,
2013-09-04 20:30:00,70.0,60.1,30.02,WNW,293,0.0,0.0,71,0.00,,,0.00,WUHU216HW,2013-09-05 03:30:00,
2013-09-04 20:35:00,70.0,60.1,30.02,WNW,293,0.0,0.0,71,0.00,,,0.00,WUHU216HW,2013-09-05 03:35:00,
2013-09-04 21:00:00,69.7,60.2,30.02,WNW,293,0.0,0.0,72,0.00,,,0.00,WUHU216HW,2013-09-05 04:00:00,
2013-09-04 21:01:00,69.7,60.2,30.02,WNW,293,0.0,0.0,72,0.00,,,0.00,WUHU216HW,2013-09-05 04:01:00,
2013-09-04 21:02:00,69.7,60.2,30.02,WNW,293,0.0,0.0,72,0.00,,,0.00,WUHU216HW,2013-09-05 04:02:00,
2013-09-04 21:07:00,69.7,60.2,30.02,WNW,293,0.0,0.0,72,0.00,,,0.00,WUHU216HW,2013-09-05 04:07:00,
2013-09-04 21:30:00,69.3,60.2,30.02,South,180,0.0,0.0,73,0.00,,,0.00,WUHU216HW,2013-09-05 04:30:00,
2013-09-04 21:35:00,69.3,60.2,30.02,South,180,0.0,0.0,73,0.00,,,0.00,WUHU216HW,2013-09-05 04:35:00,
2013-09-04 21:59:00,68.9,60.3,30.02,South,180,0.0,0.0,74,0.00,,,0.00,WUHU216HW,2013-09-05 04:59:00,
2013-09-04 22:00:00,68.9,60.3,30.02,South,180,0.0,0.0,74,0.00,,,0.00,WUHU216HW,2013-09-05 05:00:00,
2013-09-04 22:05:00,68.9,60.3,30.02,South,180,0.0,0.0,74,0.00,,,0.00,WUHU216HW,2013-09-05 05:05:00,
2013-09-04 22:30:00,68.6,60.3,30.02,South,180,0.0,0.0,75,0.00,,,0.00,WUHU216HW,2013-09-05 05:30:00,
2013-09-04 22:35:00,68.6,60.3,30.02,South,180,0.0,0.0,75,0.00,,,0.00,WUHU216HW,2013-09-05 05:35:00,
2013-09-04 23:00:00,68.4,60.6,30.01,South,180,0.0,0.0,76,0.00,,,0.00,WUHU216HW,2013-09-05 06:00:00,
2013-09-04 23:05:00,68.4,60.6,30.01,South,180,0.0,0.0,76,0.00,,,0.00,WUHU216HW,2013-09-05 06:05:00,
2013-09-04 23:30:00,67.9,60.4,30.00,West,270,0.2,0.2,77,0.00,,,0.00,WUHU216HW,2013-09-05 06:30:00,
2013-09-04 23:35:00,67.9,60.4,30.00,West,270,0.2,0.2,77,0.00,,,0.00,WUHU216HW,2013-09-05 06:35:00,
2013-09-04 23:59:00,67.3,59.9,30.00,South,180,0.0,0.0,77,0.00,,,0.00,WUHU216HW,2013-09-05 06:59:00,